• Join FlightAware (Why Join?)
  • Login
  • US Flag GB Flag 
19:53 EST


 

Airport Tracker/Info


-or-


 

Live Flight TrackerFlight Track Log ✈ BOE1 ✈ 01-Dec-2011 ✈ KBFI - KPMD

Flight Track Log - Related Links

Times and Time Zones

All times are in EST time to prevent confusion due to time zone crossing. See the BOE1 flight status page for this flight to view local times or setup timezone preferences in your user account.

Time Position Orientation Groundspeed Altitude Reporting Facility
EST Latitude Longitude Course Direction KTS MPH feet Rate Location/Type
12:02 47.5117 -122.2878 152° Southeast 176 203 1,300  Level Seattle Center
12:02 47.4922 -122.2722 150° Southeast 205 236 2,000 2,220 Climbing Seattle Center
12:03 47.4383 -122.2267 151° Southeast 260 299 4,300 2,400 Climbing Seattle Center
12:04 47.4047 -122.1986 169° South 272 313 5,700 1,680 Climbing Seattle Center
12:05 47.3289 -122.1778 175° South 286 329 7,100 2,100 Climbing Seattle Center
12:06 47.2494 -122.1675 173° South 289 333 10,100 2,520 Climbing Seattle Center
12:07 47.1528 -122.1503 165° South 370 426 12,300 2,700 Climbing Seattle Center
12:08 47.0464 -122.1083 170° South 404 465 15,600 2,760 Climbing Seattle Center
12:09 46.9019 -122.0697 170° South 447 514 18,000 2,460 Climbing Seattle Center
12:10 46.7739 -122.0381 169° South 469 540 20,700 2,340 Climbing Seattle Center
12:11 46.6433 -122.0000 166° South 478 550 22,800 2,400 Climbing Seattle Center
12:12 46.5108 -121.9508 164° South 495 570 25,700 2,220 Climbing Seattle Center
12:13 46.3756 -121.8944 165° South 509 586 27,400 1,860 Climbing Seattle Center
12:14 46.2122 -121.8331 165° South 530 610 29,500 1,800 Climbing Seattle Center
12:15 46.0681 -121.7775 166° South 538 619 31,100 1,380 Climbing Seattle Center
12:16 45.9206 -121.7244 165° South 549 632 32,400 900 Climbing Seattle Center
12:17 45.7681 -121.6667 165° South 556 640 33,000 240 Climbing Seattle Center
12:18 45.6136 -121.6064 165° South 572 658 33,000  Level Seattle Center
12:19 45.4642 -121.5508 165° South 567 652 33,000  Level Seattle Center
12:20 45.3114 -121.4936 166° South 566 651 33,000  Level Seattle Center
12:21 45.1314 -121.4281 165° South 564 649 33,000  Level Seattle Center
12:22 44.9792 -121.3722 165° South 568 654 33,000  Level Seattle Center
12:23 44.8283 -121.3172 166° South 567 652 33,000  Level Seattle Center
12:24 44.6772 -121.2631 166° South 567 652 33,000  Level Seattle Center
12:25 44.5142 -121.2047 166° South 572 658 33,000  Level Seattle Center
12:26 44.3586 -121.1494 165° South 573 659 33,000  Level Seattle Center
12:27 44.2150 -121.0967 166° South 580 667 33,000  Level Seattle Center
12:28 44.0294 -121.0336 166° South 576 663 33,000  Level Seattle Center
12:29 43.8744 -120.9803 166° South 577 664 33,000  Level Seattle Center
12:30 43.7189 -120.9278 165° South 576 663 33,000  Level Seattle Center
12:31 43.5672 -120.8736 166° South 573 659 33,000  Level Seattle Center
12:32 43.4281 -120.8256 166° South 575 662 33,000  Level Seattle Center
12:33 43.2406 -120.7617 166° South 576 663 33,000  Level Seattle Center
12:34 43.0836 -120.7075 166° South 579 666 33,000  Level Seattle Center
12:35 42.9278 -120.6547 166° South 576 663 33,000  Level Seattle Center
12:36 42.7717 -120.6019 166° South 576 663 33,000  Level Seattle Center
12:37 42.6197 -120.5508 166° South 566 651 33,000  Level Seattle Center
12:38 42.4636 -120.4992 167° South 571 657 33,000  Level Seattle Center
12:39 42.3067 -120.4508 168° South 576 663 33,000  Level Seattle Center
12:40 42.1486 -120.4050 168° South 577 664 33,000  Level Seattle Center
12:41 41.9919 -120.3583 167° South 576 663 33,000  Level Seattle Center
12:43 41.8331 -120.3108 167° South 574 661 33,000  Level Seattle Center
12:44 41.6786 -120.2644 168° South 575 662 33,000  Level Seattle Center
12:45 41.5217 -120.2194 168° South 575 662 33,000  Level Seattle Center
12:46 41.3642 -120.1753 175° South 577 664 33,000  Level Seattle Center
12:47 41.1667 -120.1528 175° South 589 678 33,000  Level Seattle Center
12:48 41.0022 -120.1353 176° South 591 680 33,000  Level Seattle Center
12:49 40.8369 -120.1194 176° South 592 681 33,000  Level Seattle Center
12:50 40.6731 -120.1047 180° South 591 680 33,000  Level Seattle Center
12:50 40.5911 -120.1042 175° South 596 686 33,000  Level Oakland Center
12:51 40.4119 -120.0819 175° South 596 686 33,000  Level Oakland Center
12:52 40.2492 -120.0622 168° South 596 686 33,000  Level Oakland Center
12:53 40.0861 -120.0183 168° South 596 686 33,000  Level Oakland Center
12:54 39.9233 -119.9719 167° South 596 686 33,100 -300 Climbing Oakland Center
12:55 39.7769 -119.9281 167° South 601 692 32,500 -1,020 Descending Oakland Center
12:56 39.6222 -119.8817 167° South 601 692 31,100 -1,500 Descending Oakland Center
12:57 39.4653 -119.8358 167° South 589 678 29,500 -1,560 Descending Oakland Center
12:58 39.3064 -119.7900 168° South 584 672 28,000 -1,260 Descending Oakland Center
12:59 39.1539 -119.7469 167° South 584 672 27,000 -540 Descending Oakland Center
13:00 39.0033 -119.7014 168° South 573 659 27,000  Level Oakland Center
13:01 38.8525 -119.6589 168° South 564 649 27,000  Level Oakland Center
13:02 38.6956 -119.6164 167° South 564 649 27,000  Level Oakland Center
13:03 38.5386 -119.5689 167° South 574 661 27,000  Level Oakland Center
13:04 38.3817 -119.5217 167° South 574 661 27,000  Level Oakland Center
13:05 38.2247 -119.4744 168° South 579 666 27,000  Level Oakland Center
13:06 38.0489 -119.4253 169° South 584 672 27,000  Level Oakland Center
13:07 37.8878 -119.3839 167° South 584 672 27,000 -60 Level Oakland Center
13:08 37.7264 -119.3375 170° South 590 679 26,900  Descending Oakland Center
13:09 37.5694 -119.3017 168° South 595 685 27,000  Climbing Oakland Center
13:10 37.4167 -119.2608 167° South 576 663 26,900  Descending Oakland Center
13:11 37.2636 -119.2172 168° South 570 656 27,000  Climbing Oakland Center
13:12 37.1044 -119.1742 167° South 565 650 27,000  Level Oakland Center
13:13 36.9514 -119.1308 168° South 570 656 27,000  Level Oakland Center
13:14 36.7964 -119.0906 167° South 565 650 27,000  Level Oakland Center
13:15 36.6392 -119.0453 168° South 571 657 27,000  Level Oakland Center
13:17 36.3353 -118.9647 166° South 559 643 27,000  Level Los Angeles Center
13:18 36.1881 -118.9208 169° South 559 643 27,000  Level Los Angeles Center
13:19 36.0367 -118.8847 168° South 559 643 27,000 -540 Level Los Angeles Center
13:20 35.8956 -118.8467 167° South 543 625 26,000 -1,440 Descending Los Angeles Center
13:21 35.7608 -118.8086 168° South 525 604 24,200 -1,260 Descending Los Angeles Center
13:22 35.6281 -118.7736 168° South 504 580 23,500 -1,620 Descending Los Angeles Center
13:23 35.4994 -118.7414 168° South 484 557 21,000 -2,400 Descending Los Angeles Center
13:24 35.3728 -118.7092 168° South 478 550 18,700 -2,340 Descending Los Angeles Center
13:25 35.2525 -118.6775 169° South 461 531 16,400 -2,340 Descending Los Angeles Center
13:26 35.1361 -118.6486 165° South 448 516 14,100 -2,220 Descending Los Angeles Center
13:27 35.0200 -118.6119 134° Southeast 437 503 12,000 -1,680 Descending Los Angeles Center
13:28 34.9489 -118.5236 131° Southeast 397 457 10,800 -900 Descending Los Angeles Center
13:29 34.8858 -118.4358 129° Southeast 344 396 10,200 -1,200 Descending Los Angeles Center
13:30 34.8392 -118.3661 132° Southeast 309 356 8,400 -1,740 Descending Los Angeles Center
13:31 34.7883 -118.2964 127° Southeast 289 333 6,800 -1,380 Descending Los Angeles Center
13:32 34.7456 -118.2269 109° East 269 310 5,700 -900 Descending Los Angeles Center
13:33 34.7219 -118.1456 105° East 255 293 5,000 -360 Descending Los Angeles Center
13:34 34.7064 -118.0744 100° East 234 269 5,000  Level Los Angeles Center
13:35 34.6969 -118.0086 89° East 214 246 5,000  Level Los Angeles Center
13:36 34.6981 -117.9403 98° East 203 234 5,000  Level Los Angeles Center
13:37 34.6908 -117.8744 187° South 196 226 5,000 -60 Level Los Angeles Center
13:38 34.6428 -117.8811 265° West 122 140 4,900 -240 Descending Los Angeles Center
13:39 34.6375 -117.9492 269° West 111 128 4,600 -660 Descending Los Angeles Center
13:40 34.6367 -118.0097 266° West 146 168 3,600 -840 Descending Los Angeles Center
13:41 34.6336 -118.0678 261° West 171 197 3,000 -300 Descending Los Angeles Center
13:42 34.6264 -118.1256 179° South 176 203 3,100 60 Climbing Los Angeles Center
13:43 34.5950 -118.1247 51° Northeast 93 107 3,200 -300 Climbing Los Angeles Center
13:44 34.6164 -118.0925 51° Northeast 40 46 2,500 -720 Descending Los Angeles Center